Location: Kuppenheim
(48.8299°N, 8.2568°E)
Time: 08:38:09
(UTC+00:00)

N. Korean satellite - Pass Details

Date: 02 December 2022
Orbit: 407 x 444 km, 97.3° (Epoch: 28 January)

Event Time Altitude Azimuth Distance (km) Brightness Sun altitude
Rises 06:19:37 0° 353° (N) 2,525 9.9 -6.6°
Reaches altitude 10° 06:23:11 10° 314° (NW) 1,635 8.6 -6.1°
Maximum altitude 06:24:01 11° 300° (WNW) 1,589 8.5 -6.0°
Drops below altitude 10° 06:24:51 10° 286° (WNW) 1,628 8.6 -5.8°
Sets 06:28:22 0° 248° (WSW) 2,485 9.8 -5.3°
